This is the latest recevied weather packets stored in our database for station/object EA3RCF. If no packets are shown the sender has not sent any weather packets the latest 10 day(s).
| Time | Temp. | Humidity | Pressure | Rain* | Wind** | Luminosity | Snow |
|---|---|---|---|---|---|---|---|
| 1777984100 | 18.33° C | 68% | 1010.6 hPa | 0 mm | - | - | - |
| 1777983807 | 18.33° C | 71% | 1010.7 hPa | 0 mm | - | - | - |
| 1777983508 | 17.78° C | 76% | 1010.7 hPa | 0 mm | - | - | - |
| 1777983217 | 17.22° C | 77% | 1010.8 hPa | 0 mm | - | - | - |
| 1777982898 | 17.22° C | 77% | 1010.8 hPa | 0 mm | - | - | - |
| 1777982598 | 17.22° C | 75% | 1010.8 hPa | 0 mm | - | - | - |
| 1777982303 | 17.78° C | 75% | 1010.8 hPa | 0 mm | - | - | - |
| 1777982005 | 17.78° C | 71% | 1010.9 hPa | 0 mm | - | - | - |
| 1777981714 | 17.78° C | 72% | 1010.8 hPa | 0 mm | - | - | - |
| 1777981395 | 17.78° C | 72% | 1011 hPa | 0 mm | - | - | - |
| 1777981095 | 17.78° C | 72% | 1011 hPa | 0 mm | - | - | - |
| 1777980803 | 17.78° C | 73% | 1011 hPa | 0 mm | - | - | - |
| 1777980504 | 17.22° C | 73% | 1011 hPa | 0 mm | - | - | - |
| 1777980214 | 17.78° C | 74% | 1011.1 hPa | 0 mm | - | - | - |
| 1777979914 | 17.22° C | 74% | 1011.3 hPa | 0 mm | - | - | - |
| 1777979601 | 17.78° C | 74% | 1011.4 hPa | 0 mm | - | - | - |
| 1777979304 | 17.78° C | 74% | 1011.5 hPa | 0 mm | - | - | - |
| 1777978997 | 17.22° C | 77% | 1011.5 hPa | 0 mm | - | - | - |
| 1777978696 | 17.22° C | 76% | 1011.6 hPa | 0 mm | - | - | - |
| 1777978404 | 17.22° C | 80% | 1011.6 hPa | 0 mm | - | - | - |
| 1777978105 | 16.67° C | 80% | 1011.6 hPa | 0 mm | - | - | - |
| 1777977813 | 16.67° C | 81% | 1011.7 hPa | 0 mm | - | - | - |
| 1777977514 | 16.67° C | 81% | 1011.7 hPa | 0 mm | - | - | - |
| 1777977195 | 16.67° C | 81% | 1011.6 hPa | 0 mm | - | - | - |
| 1777976903 | 17.22° C | 81% | 1011.5 hPa | 0 mm | - | - | - |
* Rain latest hour (hover to see other rain measurements)
** Current wind speed in m/s (hover to see current wind gust speed)